Date,TemperatureHighF,TemperatureAvgF,TemperatureLowF,DewpointHighF,DewpointAvgF,DewpointLowF,HumidityHigh,HumidityAvg,HumidityLow,PressureMaxIn,PressureMinIn,WindSpeedMaxMPH,WindSpeedAvgMPH,GustSpeedMaxMPH,PrecipitationSumIn
2013-8-1,69.0,67.1,65.0,69.0,66.8,64.0,100,99,95,29.97,29.76,11,1,15,0.87
2013-8-2,85.0,73.7,64.0,73.0,65.6,59.0,100,80,44,29.87,29.74,11,1,11,0.01
2013-8-3,76.0,68.2,62.0,71.0,66.0,62.0,100,94,80,29.86,29.78,10,1,11,0.03
2013-8-4,81.0,69.6,59.0,65.0,58.4,50.0,100,71,38,29.94,29.77,16,2,19,0.00
2013-8-5,81.0,67.3,54.0,61.0,53.4,45.0,98,65,32,30.01,29.89,13,2,13,0.00
2013-8-6,84.0,68.3,54.0,65.0,58.6,50.0,100,76,34,30.06,29.96,12,2,13,0.00
2013-8-7,79.0,70.0,63.0,69.0,66.2,62.0,100,89,64,30.07,29.97,13,2,14,0.00
2013-8-8,88.0,74.9,68.0,79.0,71.9,68.0,100,92,61,29.99,29.87,13,1,13,0.35
2013-8-9,87.0,77.1,72.0,77.0,73.8,71.0,100,91,67,29.92,29.69,12,2,13,0.02
2013-8-10,87.0,75.3,67.0,73.0,66.9,61.0,100,78,46,29.98,29.79,10,1,10,0.00
2013-8-11,88.0,73.2,58.0,68.0,60.2,53.0,100,68,39,30.08,29.89,8,2,8,0.00
2013-8-12,89.0,73.1,66.0,70.0,66.6,59.0,100,84,40,29.97,29.82,8,1,9,0.06
2013-8-13,85.0,71.7,66.0,72.0,68.3,63.0,100,91,56,29.86,29.59,13,1,13,0.86
2013-8-14,76.0,65.8,55.0,65.0,53.5,47.0,99,67,44,30.04,29.70,21,3,21,0.00
2013-8-15,81.0,65.4,51.0,59.0,52.8,41.0,100,70,29,30.12,29.96,10,1,11,0.00
2013-8-16,85.0,67.0,51.0,65.0,55.3,47.0,100,73,30,30.18,30.02,9,0,9,0.00
2013-8-17,87.0,67.7,52.0,66.0,57.2,52.0,100,74,33,30.22,30.10,8,1,9,0.00
2013-8-18,77.0,66.4,60.0,66.0,61.7,56.0,100,87,52,30.22,30.05,10,1,11,0.02
2013-8-19,80.0,68.7,60.0,71.0,63.8,59.0,100,87,54,30.10,29.95,9,0,9,0.00
2013-8-20,91.0,75.3,62.0,73.0,65.7,61.0,100,77,38,30.06,29.94,7,1,9,0.00
2013-8-21,92.0,76.7,61.0,71.0,64.4,55.0,100,73,31,30.13,29.94,8,1,9,0.00
2013-8-22,82.0,72.2,68.0,76.0,71.3,68.0,100,98,73,30.00,29.80,12,1,12,0.81
2013-8-23,80.0,71.9,65.0,70.0,63.7,51.0,100,78,39,30.03,29.81,15,2,15,0.00
2013-8-24,85.0,68.8,58.0,61.0,53.9,46.0,100,63,29,30.32,30.03,14,3,14,0.00
2013-8-25,85.0,67.3,52.0,69.0,56.5,51.0,100,74,34,30.37,30.16,10,1,10,0.00
2013-8-26,86.0,71.6,60.0,70.0,63.3,57.0,98,77,51,30.21,29.85,10,1,19,0.01
2013-8-27,90.0,76.5,68.0,72.0,68.2,64.0,100,79,45,29.86,29.72,15,2,15,0.05
2013-8-28,79.0,71.3,66.0,75.0,70.9,66.0,100,99,78,29.83,29.74,6,0,6,0.36
2013-8-29,84.0,72.3,67.0,71.0,69.0,65.0,100,91,59,29.97,29.80,10,2,10,0.00
2013-8-30,86.0,73.7,67.0,72.0,69.2,67.0,100,88,60,29.97,29.78,9,1,9,0.00
2013-8-31,87.0,76.0,68.0,75.0,71.9,68.0,100,89,64,29.81,29.67,12,1,12,0.00